Regional Weather Roundup
Issued by NWS

Home | Current Version | Previous Version | Text Only | Print | Product List | Glossary On
Versions: 1 2 3 4 5 6 7 8 9 10 11 12 13 14 15 16 17 18 19 20 21 22 23 24 25 26 27 28 29 30 31 32 33 34 35 36 37 38 39 40 41
000
ASUS46 KSEW 272210
RWRWA

WASHINGTON REGIONAL WEATHER ROUNDUP
NATIONAL WEATHER SERVICE SEATTLE WA
200 PM PST SAT DEC 27 2014

NOTE:"FAIR" INDICATES FEW OR NO CLOUDS BELOW 12,000 FEET WITH NO
SIGNIFICANT WEATHER AND/OR OBSTRUCTIONS TO VISIBILITY.

WAZ505-507>509-272300-
SEATTLE, TACOMA, EVERETT, AND VICINITY

CITY           SKY/WX    TMP DP  RH WIND       PRES   REMARKS
EVERETT        RAIN      46  43  89 NW6       30.03F FOG
BOEING FIELD   PTSUNNY   52  42  69 S12G25    30.03F
RENTON         PTSUNNY   49  44  83 S14G26    30.02F
SEATAC AIRPORT PTSUNNY   48  43  81 SW18G24   30.03S
JBLM-MCCHORD   PTSUNNY   48  47  99 S13       30.07F
PUYALLUP       NOT AVBL
BREMERTON      MOSUNNY   48  45  87 S15       30.05S
JBLM-FT LEWIS  PTSUNNY   47  46  99 S10       30.07F
TACOMA NARROWS PTSUNNY   48  43  82 SW13      30.06F
$$

WAZ001-503-506-510-514-515-272300-
NORTH INTERIOR

CITY           SKY/WX    TMP DP  RH WIND       PRES   REMARKS
BELLINGHAM     CLOUDY    47  42  83 S13       29.98R
FRIDAY HARBOR  PTSUNNY   48  40  73 SW14G24   30.01R
EASTSOUND      MOSUNNY   48  41  76 SW12G17   29.98R
PORT ANGELES   MOSUNNY   47  39  74 MISG      30.03F
NAS WHIDBEY    CLOUDY    49  42  77 W20G28    30.03F
ARLINGTON      CLOUDY    43  39  87 W8        30.06R
BURLINGTON     PTSUNNY   46  41  81 SW14      30.02F
$$

WAZ020-022-039-040-504-511-512-272300-
SOUTHWEST INTERIOR

CITY           SKY/WX    TMP DP  RH WIND       PRES   REMARKS
SHELTON        LGT RAIN  48  44  86 SW15      30.03F FOG
OLYMPIA        CLOUDY    48  43  82 SW10      30.08F
CHEHALIS       CLOUDY    50  46  87 SW8       30.11F
KELSO          CLOUDY    45  39  81 SE7       30.20S
VANCOUVER      LGT RAIN  44  39  82 CALM      30.19F
SCAPPOOSE, OR  CLOUDY    45  42  89 SE3       30.17F
PORTLAND, OR   LGT RAIN  44  40  85 CALM      30.19F
$$

WAZ021-516-517-272300-
WASHINGTON COAST

CITY           SKY/WX    TMP DP  RH WIND       PRES   REMARKS
FORKS          MOSUNNY   48  40  73 W6        30.09F
HOQUIAM        LGT RAIN  48  46  93 W18       30.11F FOG
ASTORIA, OR    CLOUDY    49  45  86 SW9       30.17F
$$

WAZ019-023-024-040-518-519-272300-
CASCADE MOUNTAINS AND COLUMBIA GORGE

CITY           SKY/WX    TMP DP  RH WIND       PRES   REMARKS
TROUTDALE, OR  LGT RAIN  45  39  79 NW7       30.18F
THE DALLES, OR CLOUDY    43  37  79 CALM      30.12F
$$

WAZ026-027-041>044-520-521-272300-
EAST SLOPES

CITY           SKY/WX    TMP DP  RH WIND       PRES   REMARKS
OMAK           CLOUDY    33  28  81 SE6       29.98F
WENATCHEE      SUNNY     36  29  75 CALM      29.97F
ELLENSBURG     MOSUNNY   43  30  60 NW5       29.96F
YAKIMA         MOSUNNY   41  30  65 CALM      30.00F
$$

WAZ028-034-035-272300-
COLUMBIA BASIN

CITY           SKY/WX    TMP DP  RH WIND       PRES   REMARKS
EPHRATA        PTSUNNY   39  32  76 CALM      29.96F
MOSES LAKE     MOSUNNY   39  34  82 S10       29.97F
PASCO          CLOUDY    45  35  68 S13       30.06F
HERMISTON, OR  CLOUDY    44  38  79 SW3       30.08F
$$

WAZ036>038-272300-
NORTHEAST WASHINGTON

CITY           SKY/WX    TMP DP  RH WIND       PRES   REMARKS
SPOKANE GEIGER LGT SNOW  33  31  92 S14G21    29.95F VSB 3/4 WCI  23
SPOKANE FELTS  LGT SNOW  33  31  92 E3        30.00F VSB 3/4
FAIRCHILD AFB  LGT SNOW  32  32 100 S15G25    29.94F FOG     WCI  22
COEURDALENE,ID CLOUDY    32  30  93 S13       29.98F WCI  22
DEER PARK      SNOW      32  31  96 SE7       29.98F VSB 1/4
$$

WAZ029>033-272300-
SOUTHEAST WASHINGTON

CITY           SKY/WX    TMP DP  RH WIND       PRES   REMARKS
PULLMAN        LGT SNOW  32  29  88 SE15      30.04F VSB 3/4 WCI  22
LEWISTON, ID   CLOUDY    39  28  64 S16       30.06F
WALLA WALLA    RAIN      42  36  79 S17       30.09F
PENDLETON, OR  LGT RAIN  40  34  79 S14       30.09F
$$



USA.gov is the U.S. government's official web portal to all federal, state and local government web resources and services.